User: anonymous   Login
Location: Unspecified
(0.0000°N, 0.0000°E)
Time: 03:04:21
(UTC+00:00)
Language:

USA 93 - Orbit

View from above orbital plane
View from above orbital plane
View from above satellite
View from above satellite

Ground track
Ground track

The orbit data is extracted from the following two-line orbital elements,

1 22719U 93046A   18037.93452618 0.00000000  00000-0  00000-0 0    03
2 22719  11.1624  36.0576 0002499 269.1348  90.8486  0.99044795    04
Epoch (UTC): 06 February 2018 22:25:43
Eccentricity: 0.0002499
inclination: 11.1624°
perigee height: 36123 km
apogee height: 36144 km
right ascension of ascending node: 36.0576°
argument of perigee: 269.1348°
revolutions per day: 0.99044795
mean anomaly at epoch: 90.8486°
orbit number at epoch: 0

The dashed part of the orbit path shows where the satellite is in the earth's shadow,  

DLR